GW1175 Weather Reports


Display with metric or nautical units.
time (UTC)temp
F
wind
direction
speed
MPH
gust
MPH
rain 1hr
in
rain 24hr
in
rain mn
in
humidity
%
barometer
mb
20240714124406 77 138 1.0 1.0 0.00 0.00 0.00 77 1015.9
20240714123905 77 96 0.0 1.0 0.00 0.00 0.00 77 1015.8
20240714123403 76 95 0.0 0.0 0.00 0.00 0.00 79 1015.7
20240714122901 75 95 1.0 1.0 0.00 0.00 0.00 81 1015.6
20240714122358 75 95 0.0 0.0 0.00 0.00 0.00 82 1015.6
20240714121857 74 96 0.0 0.0 0.00 0.00 0.00 83 1015.6
20240714121356 74 100 0.0 1.0 0.00 0.00 0.00 83 1016.0
20240714120853 74 80 0.0 0.0 0.00 0.00 0.00 83 1015.6
20240714120352 74 86 0.0 0.0 0.00 0.00 0.00 83 1015.8
20240714115851 73 86 0.0 0.0 0.00 0.00 0.00 83 1015.8
20240714115347 73 86 0.0 1.0 0.00 0.00 0.00 84 1015.8
20240714114847 73 96 0.0 1.0 0.00 0.00 0.00 84 1015.7
20240714114346 73 97 0.0 0.0 0.00 0.00 0.00 84 1016.1
20240714113844 73 86 0.0 0.0 0.00 0.00 0.00 84 1016.2
20240714113342 73 96 0.0 0.0 0.00 0.00 0.00 84 1015.8
20240714112841 73 72 0.0 0.0 0.00 0.00 0.00 84 1016.1
20240714112340 73 68 0.0 0.0 0.00 0.00 0.00 84 1015.6
20240714111838 73 86 0.0 0.0 0.00 0.00 0.00 83 1014.5
20240714111338 73 83 0.0 0.0 0.00 0.00 0.00 83 1014.1
20240714110837 73 97 0.0 1.0 0.00 0.00 0.00 83 1013.8
20240714110336 73 93 0.0 0.0 0.00 0.00 0.00 83 1013.7
20240714105835 74 110 0.0 1.0 0.00 0.00 0.00 82 1013.6
20240714105334 74 114 0.0 2.0 0.00 0.00 0.00 82 1013.6
20240714104833 74 148 2.0 2.0 0.00 0.00 0.00 82 1013.6
20240714104329 74 146 1.0 2.0 0.00 0.00 0.00 82 1013.6
20240714103828 74 95 0.0 1.0 0.00 0.00 0.00 82 1013.7
20240714103327 74 91 0.0 1.0 0.00 0.00 0.00 81 1013.6
20240714102825 74 93 0.0 0.0 0.00 0.00 0.00 81 1013.5
20240714102324 74 101 0.0 1.0 0.00 0.00 0.00 81 1013.4
20240714101824 74 112 0.0 1.0 0.00 0.00 0.00 81 1013.6
20240714101321 75 87 0.0 1.0 0.00 0.00 0.00 81 1013.6
20240714100821 75 86 0.0 0.0 0.00 0.00 0.00 81 1013.6
20240714100320 75 83 0.0 1.0 0.00 0.00 0.00 80 1013.4
20240714095819 75 104 0.0 1.0 0.00 0.00 0.00 80 1013.6
20240714095317 75 92 0.0 1.0 0.00 0.00 0.00 79 1013.5
20240714094815 75 101 0.0 1.0 0.00 0.00 0.00 79 1013.6
20240714094312 75 105 0.0 2.0 0.00 0.00 0.00 79 1013.4
20240714093811 76 111 1.0 1.0 0.00 0.00 0.00 79 1013.4
20240714093309 76 177 1.0 2.0 0.00 0.00 0.00 80 1013.5
20240714092808 76 107 0.0 1.0 0.00 0.00 0.00 79 1013.4
20240714092307 76 104 0.0 1.0 0.00 0.00 0.00 79 1013.3
20240714091804 76 99 0.0 2.0 0.00 0.00 0.00 79 1013.4
20240714091302 76 90 0.0 1.0 0.00 0.00 0.00 78 1013.2
20240714090801 76 103 1.0 2.0 0.00 0.00 0.00 78 1013.4
20240714090259 77 93 0.0 1.0 0.00 0.00 0.00 78 1013.5
20240714085758 77 118 0.0 1.0 0.00 0.00 0.00 77 1013.4
20240714085256 77 98 0.0 2.0 0.00 0.00 0.00 76 1013.5
20240714084754 77 98 0.0 1.0 0.00 0.00 0.00 76 1013.4
20240714084252 77 96 1.0 2.0 0.00 0.00 0.00 75 1013.3
20240714083749 77 77 0.0 2.0 0.00 0.00 0.00 75 1013.4
20240714083248 78 97 0.0 2.0 0.00 0.00 0.00 75 1013.3
20240714082747 78 116 1.0 2.0 0.00 0.00 0.00 74 1013.4
20240714082246 78 153 1.0 2.0 0.00 0.00 0.00 73 1013.3
20240714081743 78 138 2.0 3.0 0.00 0.00 0.00 73 1013.4
20240714081242 79 151 3.0 3.0 0.00 0.00 0.00 72 1013.4
20240714080740 79 171 3.0 5.0 0.00 0.00 0.00 72 1013.3
20240714080238 79 86 1.0 3.0 0.00 0.00 0.00 71 1013.3
20240714075735 79 130 1.0 3.0 0.00 0.00 0.00 71 1013.4
20240714075235 80 113 2.0 6.0 0.00 0.00 0.00 70 1013.6
20240714074733 80 186 4.0 6.0 0.00 0.00 0.00 70 1013.5
20240714074232 80 130 1.0 5.0 0.00 0.00 0.00 70 1013.6
20240714073730 80 192 4.0 6.0 0.00 0.00 0.00 69 1013.6
20240714073230 80 110 3.0 5.0 0.00 0.00 0.00 69 1013.7
20240714072729 80 80 3.0 5.0 0.00 0.00 0.00 69 1013.7
20240714072229 80 164 3.0 6.0 0.00 0.00 0.00 69 1013.7
20240714071728 80 167 1.0 5.0 0.00 0.00 0.00 69 1013.5
20240714071227 80 125 1.0 3.0 0.00 0.00 0.00 69 1014.0
20240714070725 80 192 1.0 2.0 0.00 0.00 0.00 69 1014.0
20240714070223 80 189 1.0 2.0 0.00 0.00 0.00 69 1014.1
20240714065722 81 177 1.0 2.0 0.00 0.00 0.00 69 1014.0
20240714065220 81 96 0.0 2.0 0.00 0.00 0.00 69 1014.2
20240714064718 81 109 1.0 2.0 0.00 0.00 0.00 69 1014.0
20240714064217 81 122 1.0 2.0 0.00 0.00 0.00 68 1014.1
20240714063715 81 109 1.0 5.0 0.00 0.00 0.00 68 1014.1
20240714063213 81 120 2.0 5.0 0.00 0.00 0.00 68 1014.0
20240714062712 81 133 1.0 3.0 0.00 0.00 0.00 68 1014.0
20240714062212 82 161 3.0 5.0 0.00 0.00 0.00 68 1013.8
20240714061711 82 121 1.0 2.0 0.00 0.00 0.00 68 1014.1
20240714061210 82 87 2.0 5.0 0.00 0.00 0.00 68 1014.2
20240714060708 82 120 0.0 5.0 0.00 0.00 0.00 68 1014.1
20240714060208 82 151 2.0 6.0 0.00 0.00 0.00 68 1013.8
20240714055705 82 119 1.0 3.0 0.00 0.00 0.00 68 1014.0
20240714055205 82 108 0.0 2.0 0.00 0.00 0.00 68 1014.0
20240714054702 83 93 1.0 3.0 0.00 0.00 0.00 67 1014.0
20240714054200 83 199 2.0 5.0 0.00 0.00 0.00 67 1013.8
20240714053700 83 111 0.0 9.0 0.00 0.00 0.00 67 1014.0
20240714053158 83 203 3.0 6.0 0.00 0.00 0.00 67 1014.1
20240714052658 83 140 1.0 2.0 0.00 0.00 0.00 67 1014.1
20240714052157 83 165 2.0 5.0 0.00 0.00 0.00 66 1013.8
20240714051655 84 127 1.0 2.0 0.00 0.00 0.00 66 1014.0
20240714051155 84 150 1.0 3.0 0.00 0.00 0.00 66 1014.1
20240714050654 84 168 2.0 3.0 0.00 0.00 0.00 66 1014.2
20240714050153 84 99 0.0 2.0 0.00 0.00 0.00 66 1014.1
20240714045651 84 93 1.0 2.0 0.00 0.00 0.00 67 1014.1
20240714045149 84 98 0.0 1.0 0.00 0.00 0.00 67 1014.1
20240714044648 84 101 1.0 5.0 0.00 0.00 0.00 67 1013.8
20240714044146 84 110 1.0 1.0 0.00 0.00 0.00 69 1014.2
20240714043646 84 105 0.0 2.0 0.00 0.00 0.00 69 1014.0
20240714043146 84 110 1.0 2.0 0.00 0.00 0.00 69 1013.8
20240714042644 84 90 0.0 3.0 0.00 0.00 0.00 69 1013.8
20240714042143 84 98 2.0 3.0 0.00 0.00 0.00 70 1014.2
20240714041642 84 104 2.0 6.0 0.00 0.00 0.00 70 1014.1
20240714041140 84 92 0.0 2.0 0.00 0.00 0.00 71 1014.1
20240714040639 84 97 0.0 3.0 0.00 0.00 0.00 71 1014.1
20240714040139 84 87 1.0 1.0 0.00 0.00 0.00 72 1014.0
20240714035637 84 120 2.0 3.0 0.00 0.00 0.00 72 1014.2
20240714035136 84 86 0.0 1.0 0.00 0.00 0.00 72 1014.0
20240714034635 84 81 0.0 1.0 0.00 0.00 0.00 73 1014.1
20240714034134 84 95 1.0 2.0 0.00 0.00 0.00 73 1014.0
20240714033632 84 100 2.0 3.0 0.00 0.00 0.00 73 1014.1
20240714033131 84 94 0.0 2.0 0.00 0.00 0.00 74 1014.2
20240714032630 84 167 1.0 2.0 0.00 0.00 0.00 74 1014.1
20240714032128 84 106 0.0 2.0 0.00 0.00 0.00 74 1014.2
20240714031625 85 104 0.0 2.0 0.00 0.00 0.00 73 1014.1
20240714031125 85 83 1.0 2.0 0.00 0.00 0.00 73 1014.2
20240714030623 85 106 1.0 1.0 0.00 0.00 0.00 73 1014.1
20240714030121 85 97 0.0 3.0 0.00 0.00 0.00 74 1014.0
20240714025619 85 116 0.0 2.0 0.00 0.00 0.00 73 1014.2
20240714025116 85 99 0.0 1.0 0.00 0.00 0.00 73 1014.2
20240714024614 85 101 1.0 3.0 0.00 0.00 0.00 74 1014.1
20240714024111 85 105 0.0 1.0 0.00 0.00 0.00 74 1014.1
20240714023609 86 102 2.0 2.0 0.00 0.00 0.00 74 1014.1
20240714023108 86 114 1.0 5.0 0.00 0.00 0.00 74 1014.0
20240714022605 86 97 0.0 1.0 0.00 0.00 0.00 74 1014.1
20240714022104 86 73 1.0 2.0 0.00 0.00 0.00 74 1014.0
20240714021604 86 102 0.0 3.0 0.00 0.00 0.00 74 1013.8
20240714021102 86 95 0.0 2.0 0.00 0.00 0.00 74 1014.0
20240714020603 86 140 0.0 2.0 0.00 0.00 0.00 74 1014.0
20240714020101 86 105 1.0 1.0 0.00 0.00 0.00 73 1013.8
20240714015558 87 95 1.0 2.0 0.00 0.00 0.00 73 1014.1
20240714015057 87 132 0.0 2.0 0.00 0.00 0.00 72 1013.8
20240714014556 87 116 1.0 2.0 0.00 0.00 0.00 72 1013.8
20240714014055 87 101 1.0 2.0 0.00 0.00 0.00 72 1014.0
20240714013555 87 89 0.0 1.0 0.00 0.00 0.00 72 1014.1
20240714013050 87 114 1.0 2.0 0.00 0.00 0.00 71 1013.8
20240714012550 88 110 1.0 2.0 0.00 0.00 0.00 71 1014.1
20240714012048 88 120 1.0 2.0 0.00 0.00 0.00 70 1014.0
20240714011547 88 80 1.0 5.0 0.00 0.00 0.00 70 1014.1
20240714011044 88 148 1.0 5.0 0.00 0.00 0.00 70 1014.1
20240714010543 88 107 1.0 2.0 0.00 0.00 0.00 69 1014.2
20240714010040 88 111 1.0 1.0 0.00 0.00 0.00 69 1014.5
20240714005536 88 90 1.0 2.0 0.00 0.00 0.00 68 1014.2
20240714005033 88 112 1.0 1.0 0.00 0.00 0.00 68 1014.3
20240714004531 88 97 0.0 3.0 0.00 0.00 0.00 68 1014.3
20240714004031 88 128 1.0 3.0 0.00 0.00 0.00 68 1014.3
20240714003530 88 122 1.0 2.0 0.00 0.00 0.00 68 1014.3
20240714003029 88 91 1.0 2.0 0.00 0.00 0.00 67 1014.4
20240714002525 88 126 4.0 5.0 0.00 0.00 0.00 67 1014.4
20240714002018 88 95 2.0 3.0 0.00 0.00 0.00 66 1014.4
20240714001517 88 100 0.0 2.0 0.00 0.00 0.00 67 1014.5
20240714001016 88 92 0.0 1.0 0.00 0.00 0.00 68 1014.4
20240714000515 88 101 0.0 2.0 0.00 0.00 0.00 68 1014.6
20240714000014 87 107 0.0 1.0 0.00 0.00 0.00 68 1014.7
20240713235508 87 96 1.0 1.0 0.00 0.00 0.00 68 1014.7
20240713235006 87 107 1.0 2.0 0.00 0.00 0.00 68 1014.9
20240713234505 87 100 1.0 1.0 0.00 0.00 0.00 68 1014.8
20240713234002 87 91 0.0 1.0 0.00 0.00 0.00 67 1014.8
20240713233501 87 101 0.0 2.0 0.00 0.00 0.00 67 1014.7
20240713233000 88 114 1.0 2.0 0.00 0.00 0.00 67 1014.7
20240713232459 88 97 1.0 3.0 0.00 0.00 0.00 66 1014.7
20240713231957 88 156 2.0 3.0 0.00 0.00 0.00 66 1014.7
20240713231456 88 124 1.0 5.0 0.00 0.00 0.00 66 1014.7
20240713230955 88 118 1.0 2.0 0.00 0.00 0.00 66 1014.7
20240713230453 88 102 1.0 3.0 0.00 0.00 0.00 66 1014.4
20240713225951 88 91 2.0 6.0 0.00 0.00 0.00 65 1014.3
20240713225449 88 101 1.0 2.0 0.00 0.00 0.00 65 1014.4
20240713224947 88 88 0.0 2.0 0.00 0.00 0.00 64 1014.5
20240713224446 89 141 2.0 3.0 0.00 0.00 0.00 63 1014.5
20240713223945 89 92 3.0 5.0 0.00 0.00 0.00 62 1014.5
20240713223444 89 158 3.0 3.0 0.00 0.00 0.00 63 1014.6
20240713222943 89 91 3.0 7.0 0.00 0.00 0.00 63 1014.8
20240713222438 89 143 2.0 7.0 0.00 0.00 0.00 65 1014.7
20240713221936 89 99 3.0 3.0 0.00 0.00 0.00 65 1015.0
20240713221435 89 161 1.0 2.0 0.00 0.00 0.00 65 1014.9
20240713220930 89 157 3.0 5.0 0.00 0.00 0.00 62 1015.0
20240713220427 90 89 0.0 2.0 0.00 0.00 0.00 61 1014.6
20240713215925 90 81 1.0 5.0 0.00 0.00 0.00 60 1014.7
20240713215413 90 92 1.0 2.0 0.00 0.00 0.00 62 1014.7
20240713214912 90 71 1.0 3.0 0.00 0.00 0.00 62 1015.0
20240713214410 90 83 1.0 6.0 0.00 0.00 0.00 61 1015.0
20240713213908 89 103 3.0 6.0 0.00 0.00 0.00 60 1015.1
20240713213408 90 91 1.0 7.0 0.00 0.00 0.00 60 1015.0
20240713212906 91 93 1.0 6.0 0.00 0.00 0.00 60 1015.1
20240713212404 91 103 0.0 2.0 0.00 0.00 0.00 59 1015.1
20240713211904 90 136 1.0 1.0 0.00 0.00 0.00 63 1015.0
20240713211403 89 183 3.0 7.0 0.00 0.00 0.00 64 1015.2
20240713210902 89 214 6.0 7.0 0.00 0.00 0.00 63 1015.2
20240713210402 90 144 2.0 2.0 0.00 0.00 0.00 62 1015.2
20240713205902 90 161 3.0 5.0 0.00 0.00 0.00 58 1015.4
20240713205359 92 251 5.0 7.0 0.00 0.00 0.00 59 1015.4
20240713204858 93 91 1.0 3.0 0.00 0.00 0.00 59 1015.4
20240713204357 93 105 1.0 5.0 0.00 0.00 0.00 59 1015.4
20240713203855 93 188 5.0 7.0 0.00 0.00 0.00 58 1015.5
20240713203355 92 175 5.0 7.0 0.00 0.00 0.00 58 1015.4
20240713202855 92 200 3.0 6.0 0.00 0.00 0.00 61 1015.5
20240713202354 93 207 5.0 7.0 0.00 0.00 0.00 56 1015.7
20240713201852 92 146 2.0 5.0 0.00 0.00 0.00 59 1015.5
20240713201350 92 174 3.0 3.0 0.00 0.00 0.00 59 1015.7
20240713200849 91 185 3.0 3.0 0.00 0.00 0.00 60 1015.9
20240713200348 91 147 4.0 6.0 0.00 0.00 0.00 61 1015.6
20240713195847 92 85 3.0 6.0 0.00 0.00 0.00 59 1015.8
20240713195346 92 128 1.0 6.0 0.00 0.00 0.00 58 1015.6
20240713194844 91 191 3.0 6.0 0.00 0.00 0.00 60 1015.4
20240713194342 92 111 1.0 3.0 0.00 0.00 0.00 60 1015.4
20240713193841 91 90 1.0 3.0 0.00 0.00 0.00 58 1015.5
20240713193339 90 173 6.0 9.0 0.00 0.00 0.00 60 1015.5
20240713192838 92 124 1.0 5.0 0.00 0.00 0.00 56 1015.4
20240713192337 91 185 1.0 7.0 0.00 0.00 0.00 59 1015.5
20240713191835 90 163 2.0 6.0 0.00 0.00 0.00 61 1015.5
20240713191333 91 146 4.0 7.0 0.00 0.00 0.00 61 1015.5
20240713190833 92 118 1.0 3.0 0.00 0.00 0.00 60 1015.5
20240713190333 91 98 2.0 5.0 0.00 0.00 0.00 60 1015.6
20240713185831 91 136 1.0 5.0 0.00 0.00 0.00 60 1015.7
20240713185328 91 123 3.0 5.0 0.00 0.00 0.00 60 1015.7
20240713184826 90 117 1.0 5.0 0.00 0.00 0.00 60 1015.6
20240713184325 90 137 1.0 6.0 0.00 0.00 0.00 63 1015.7
20240713183823 90 129 2.0 5.0 0.00 0.00 0.00 63 1015.7
20240713183323 90 106 1.0 3.0 0.00 0.00 0.00 63 1015.9
20240713182821 90 89 4.0 6.0 0.00 0.00 0.00 63 1015.9
20240713182320 90 128 1.0 5.0 0.00 0.00 0.00 62 1015.7
20240713181820 90 170 2.0 5.0 0.00 0.00 0.00 63 1016.2
20240713181318 92 208 2.0 5.0 0.00 0.00 0.00 62 1016.0
20240713180816 92 115 2.0 6.0 0.00 0.00 0.00 61 1016.0
20240713180315 92 145 3.0 5.0 0.00 0.00 0.00 62 1016.1
20240713175815 91 153 2.0 5.0 0.00 0.00 0.00 63 1016.0
20240713175314 91 169 3.0 5.0 0.00 0.00 0.00 63 1016.0
20240713174813 91 179 3.0 5.0 0.00 0.00 0.00 61 1016.0
20240713174313 91 117 3.0 7.0 0.00 0.00 0.00 62 1016.0
20240713173811 91 103 1.0 7.0 0.00 0.00 0.00 61 1016.0
20240713173310 93 123 2.0 6.0 0.00 0.00 0.00 60 1015.8
20240713172810 92 128 2.0 2.0 0.00 0.00 0.00 63 1016.1
20240713172310 92 121 1.0 2.0 0.00 0.00 0.00 63 1016.0
20240713171809 92 85 2.0 2.0 0.00 0.00 0.00 58 1015.7
20240713171308 92 114 1.0 5.0 0.00 0.00 0.00 61 1015.9
20240713170806 92 87 0.0 2.0 0.00 0.00 0.00 58 1015.9
20240713170304 92 102 0.0 2.0 0.00 0.00 0.00 60 1016.0
20240713165803 91 97 1.0 2.0 0.00 0.00 0.00 60 1016.0
20240713165302 91 102 1.0 5.0 0.00 0.00 0.00 60 1015.9
20240713164801 92 115 1.0 1.0 0.00 0.00 0.00 59 1015.7
20240713164300 91 137 1.0 2.0 0.00 0.00 0.00 60 1015.9
20240713163758 91 92 2.0 2.0 0.00 0.00 0.00 61 1016.0
20240713163258 91 86 1.0 2.0 0.00 0.00 0.00 62 1016.1
20240713162757 90 91 1.0 3.0 0.00 0.00 0.00 61 1016.0
20240713162254 90 157 1.0 2.0 0.00 0.00 0.00 62 1016.0
20240713161754 90 111 0.0 1.0 0.00 0.00 0.00 62 1016.0
20240713161253 89 103 1.0 2.0 0.00 0.00 0.00 63 1016.1
20240713160751 89 106 1.0 2.0 0.00 0.00 0.00 63 1016.0
20240713160249 89 71 1.0 3.0 0.00 0.00 0.00 64 1015.9
20240713155748 87 89 0.0 1.0 0.00 0.00 0.00 64 1016.0
20240713155247 87 152 2.0 3.0 0.00 0.00 0.00 66 1016.0
20240713154745 88 159 3.0 3.0 0.00 0.00 0.00 67 1016.2
20240713154242 88 102 0.0 1.0 0.00 0.00 0.00 67 1016.2
20240713153741 87 92 0.0 1.0 0.00 0.00 0.00 68 1016.3
20240713153241 87 102 0.0 2.0 0.00 0.00 0.00 67 1016.2
20240713152739 86 148 2.0 2.0 0.00 0.00 0.00 70 1016.2
20240713152238 86 79 0.0 2.0 0.00 0.00 0.00 70 1016.4
20240713151737 85 85 0.0 2.0 0.00 0.00 0.00 70 1016.3
20240713151236 85 97 1.0 2.0 0.00 0.00 0.00 70 1016.2
20240713150736 85 99 1.0 1.0 0.00 0.00 0.00 71 1016.1
20240713150235 84 172 3.0 5.0 0.00 0.00 0.00 73 1016.2
20240713145733 84 127 2.0 6.0 0.00 0.00 0.00 73 1016.1
20240713145231 84 99 1.0 3.0 0.00 0.00 0.00 73 1016.3
20240713144730 83 104 1.0 2.0 0.00 0.00 0.00 73 1016.0
20240713144228 82 88 0.0 5.0 0.00 0.00 0.00 75 1015.9
20240713143726 83 99 0.0 3.0 0.00 0.00 0.00 75 1015.8
20240713143224 82 138 1.0 2.0 0.00 0.00 0.00 74 1015.8
20240713142722 82 180 3.0 5.0 0.00 0.00 0.00 74 1015.5
20240713142221 82 199 2.0 2.0 0.00 0.00 0.00 75 1015.7
20240713141719 82 108 3.0 3.0 0.00 0.00 0.00 75 1015.7
20240713141215 81 115 1.0 2.0 0.00 0.00 0.00 76 1015.7
20240713140714 82 95 1.0 2.0 0.00 0.00 0.00 75 1015.9
20240713140213 81 98 0.0 3.0 0.00 0.00 0.00 75 1015.9
20240713135712 82 157 3.0 3.0 0.00 0.00 0.00 75 1015.7
20240713135208 82 95 0.0 3.0 0.00 0.00 0.00 74 1015.9
20240713134707 82 142 2.0 5.0 0.00 0.00 0.00 74 1015.8
20240713134206 81 83 2.0 3.0 0.00 0.00 0.00 75 1015.6
20240713133704 80 93 1.0 1.0 0.00 0.00 0.00 78 1015.7
20240713133202 79 95 1.0 1.0 0.00 0.00 0.00 79 1015.7
20240713132700 79 106 1.0 1.0 0.00 0.00 0.00 80 1015.8
20240713132159 79 118 2.0 2.0 0.00 0.00 0.00 80 1015.7
20240713131658 79 94 0.0 2.0 0.00 0.00 0.00 80 1015.6
20240713131155 79 97 2.0 3.0 0.00 0.00 0.00 80 1015.7
20240713130654 78 88 0.0 1.0 0.00 0.00 0.00 81 1015.6
20240713130152 79 88 1.0 5.0 0.00 0.00 0.00 80 1015.5
20240713125652 78 99 1.0 2.0 0.00 0.00 0.00 81 1015.8
20240713125151 78 66 2.0 3.0 0.00 0.00 0.00 82 1015.5